Weather History for Minneapolis, MN

Change the Weather History Date:

Sunday, March 3, 2013

  Actual Average Record
Temperature  
Mean Temperature 25 °F 27 °F  
Max Temperature 32 °F 35 °F 65 °F (1905)
Min Temperature 18 °F 19 °F -13 °F (1873)
Degree Days  
Heating Degree Days 40 38  
Month to date heating degree days 124 115  
Since 1 July heating degree days 5658 5905  
Cooling Degree Days 0 0  
Month to date cooling degree days 0 0  
Year to date cooling degree days 0 0  
Moisture  
Dew Point 10 °F    
Average Humidity 57    
Maximum Humidity 74    
Minimum Humidity 39    
Precipitation  
Precipitation 0.00 in 0.05 in 1.19 in (1970)
Month to date precipitation 0.00 0.15  
Year to date precipitation 2.19 1.82  
Snow  
Snow 0.00 in 0.40 in 12.60 in (1985)
Month to date snowfall 0.0 1.2  
Since 1 July snowfall 35.5 42.9  
Snow Depth 6.00 in    
Sea Level Pressure  
Sea Level Pressure 30.10 in    
Wind  
Wind Speed 9 mph (ESE)    
Max Wind Speed 17 mph    
Max Gust Speed 22 mph    
Visibility 10 miles    
Events      
T = Trace of Precipitation, MM = Missing Value Source: NWS Daily Summary

Daily Weather History Graph

Daily Weather History Graph

Search for Another Location

Airport:

Trip Planner

Search our weather history database for the weather conditions in past years. The results will help you decide how hot, cold, wet, or windy it might be!

Date:

Astronomy

Mar. 03, 2013 Rise Set
Actual Time 6:46 AM CST 6:03 PM CST
Civil Twilight 6:17 AM CST 6:32 PM CST
Nautical Twilight 5:43 AM CST 7:06 PM CST
Astronomical Twilight 5:09 AM CST 7:40 PM CST
Moon No Moon Rise 9:45 AM CST (3/3)
Length of Visible Light 12h 15m
Length of Day
11h 16m
Waning Gibbous, 63% of the Moon is Illuminated
Mar 3
Waning Gibbous
Mar 4
Last Quarter
Mar 11
New
Mar 19
First Quarter
Mar 27
Full

Hourly Weather History & Observations

Time (CST) Temp. Windchill Dew Point Humidity Pressure Visibility Wind Dir Wind Speed Gust Speed Precip Events Conditions
12:53 AM 23.0 °F - 6.1 °F 48% 30.19 in 10.0 mi Calm Calm - N/A   Mostly Cloudy
1:53 AM 21.9 °F 15.7 °F 7.0 °F 53% 30.18 in 10.0 mi ESE 4.6 mph - N/A   Scattered Clouds
2:53 AM 19.9 °F 13.4 °F 9.0 °F 62% 30.17 in 10.0 mi ESE 4.6 mph - N/A   Mostly Cloudy
3:53 AM 19.9 °F 14.9 °F 8.1 °F 60% 30.17 in 10.0 mi ESE 3.5 mph - N/A   Overcast
4:53 AM 19.0 °F 10.0 °F 9.0 °F 65% 30.15 in 10.0 mi ENE 6.9 mph - N/A   Mostly Cloudy
5:53 AM 19.4 °F 10.4 °F 8.6 °F 63% 30.11 in 10.0 mi ESE 6.9 mph - N/A   Overcast
6:53 AM 18.0 °F 8.7 °F 10.0 °F 71% 30.16 in 10.0 mi ESE 6.9 mph - N/A   Mostly Cloudy
7:53 AM 19.9 °F 9.3 °F 10.9 °F 68% 30.15 in 10.0 mi ESE 9.2 mph - N/A   Mostly Cloudy
8:53 AM 21.9 °F 13.4 °F 12.0 °F 66% 30.15 in 10.0 mi SE 6.9 mph - N/A   Mostly Cloudy
9:53 AM 25.0 °F 15.5 °F 12.0 °F 58% 30.14 in 10.0 mi ESE 9.2 mph - N/A   Scattered Clouds
10:53 AM 27.0 °F 16.1 °F 12.0 °F 53% 30.13 in 10.0 mi ESE 12.7 mph - N/A   Partly Cloudy
11:53 AM 28.9 °F 18.6 °F 12.0 °F 49% 30.12 in 10.0 mi ESE 12.7 mph - N/A   Scattered Clouds
12:53 PM 30.9 °F 22.8 °F 12.9 °F 47% 30.09 in 10.0 mi SE 9.2 mph - N/A   Scattered Clouds
1:53 PM 30.9 °F 21.2 °F 12.9 °F 47% 30.06 in 10.0 mi ESE 12.7 mph - N/A   Mostly Cloudy
2:53 PM 32.0 °F 23.0 °F 10.9 °F 42% 30.05 in 10.0 mi SE 11.5 mph - N/A   Mostly Cloudy
3:53 PM 32.0 °F 23.0 °F 12.0 °F 44% 30.04 in 10.0 mi ESE 11.5 mph - N/A   Mostly Cloudy
4:53 PM 32.0 °F 21.6 °F 10.9 °F 42% 30.03 in 10.0 mi ESE 15.0 mph 21.9 mph N/A   Mostly Cloudy
5:53 PM 30.9 °F 22.8 °F 12.0 °F 46% 30.04 in 10.0 mi SE 9.2 mph - N/A   Mostly Cloudy
6:53 PM 30.0 °F 20.5 °F 12.9 °F 49% 30.04 in 10.0 mi East 11.5 mph - N/A   Mostly Cloudy
7:53 PM 28.9 °F 19.8 °F 10.0 °F 45% 30.04 in 10.0 mi East 10.4 mph - N/A   Mostly Cloudy
8:53 PM 28.0 °F 19.3 °F 10.0 °F 47% 30.04 in 10.0 mi ESE 9.2 mph - N/A   Overcast
9:53 PM 28.0 °F 17.0 °F 8.1 °F 43% 30.03 in 10.0 mi ESE 13.8 mph - N/A   Overcast
10:53 PM 28.0 °F 18.6 °F 9.0 °F 45% 30.01 in 10.0 mi ESE 10.4 mph - N/A   Overcast
11:53 PM 28.0 °F 20.0 °F 10.0 °F 47% 30.03 in 10.0 mi ESE 8.1 mph - N/A   Overcast